Weather in Narrandera

Australia     34°44′52″S   146°33′01″E
temp.,
°C
wind,
m/s
gust,
m/s
humid.,
%
clouds,
%
prec.,
mm/h
press.,
hPa
HPBL,
m
24 september, fri
fri2401:00+10nnw36790 0.0 101778
04:00+9nnw49770 0.0 1015133
07:00+10nnw412720 0.0 1015247
10:00+20wnw711430 0.0 10141201
13:00+23w913290 0.0 10112983
16:00+23w8133066 0.0 10093456
19:00+17w513334 0.0 1011317
22:00+12sw411615 0.0 1015342
25 september, sat
sat2501:00+7sw311710 0.0 1016268
04:00+4wsw38920 0.0 1017167
07:00+5sw39890 0.0 1020249
10:00+12ssw67425 0.0 10211404
13:00+15sw67345 0.0 10201892
16:00+15ssw67340 0.0 10201995
19:00+9s411542 0.0 1022266
22:00+4ssw37710 0.0 1025125
26 september, sun
sun2601:00+2ssw34830 0.0 102551
04:000se22910 0.0 102520
07:00+3e37830 0.0 1027170
10:00+15ene57470 0.0 10261220
13:00+19ene56355 0.0 10231842
16:00+19e56355 0.0 10221942
19:00+11e47610 0.0 102495
22:00+8e48720 0.0 1024116
27 september, mon
mon2701:00+6ene410766 0.0 1024187
04:00+4ene3117996 0.0 1024224
07:00+6ene51170100 0.0 1024255
10:00+16ne57412 0.0 1023983
13:00+21nne563727 0.0 10192462
16:00+21ene353671 0.0 10171787
19:00+13e486840 0.0 1018164
22:00+10e338010 0.0 101933
28 september, tue
tue2801:00+10e34778 0.0 101855
04:00+9ene3577100 0.0 101771
07:00+11ene41266100 0.0 1018263
10:00+22nne71036100 0.0 1017987
13:00+25n71039100 0.0 10142888
16:00+22n91257100 0.6 10121545
19:00+13nne31097100 16.0 1014293
22:00+14ene5109898 21.4 1014252